Regional Weather Roundup
Issued by NWS

Home | Current Version | Previous Version | Graphics & Text | Print | Product List | Glossary On
Versions: 1 2 3 4 5 6 7 8 9 10 11 12 13 14 15 16 17 18 19 20 21 22 23 24 25 26 27 28 29 30 31 32 33 34 35 36 37 38 39 40 41 42 43 44 45 46 47 48 49 50
000
ASUS45 KPSR 051200
RWRAZ

ARIZONA REGIONAL HOURLY WEATHER ROUNDUP
NATIONAL WEATHER SERVICE PHOENIX AZ
500 AM MST TUE MAY 05 2015

NOTE: FAIR INDICATES FEW OR NO CLOUDS BELOW 12,000 FEET WITH NO
SIGNIFICANT WEATHER AND/OR OBSTRUCTIONS TO VISIBILITY.

AZZ001>003-036-051300-
NORTHWEST ARIZONA

CITY           SKY/WX    TMP DP  RH WIND       PRES   REMARKS
KINGMAN        LGT RAIN  55  51  86 SE3       29.91S
6HR MIN TEMP:  55; 6HR MAX TEMP:  58; 6HR PCP:  0.05;

$$

AZZ004>008-015-016-018-051300-
NORTH CENTRAL ARIZONA

CITY           SKY/WX    TMP DP  RH WIND       PRES   REMARKS
GRAND CANYON   CLOUDY    44  43  96 W5        29.98S
6HR MIN TEMP:  35; 6HR MAX TEMP:  44;

WILLIAMS       CLOUDY    45  41  87 W6        30.06S
PRESCOTT       CLOUDY    51  43  74 S5        29.97R
6HR MIN TEMP:  50; 6HR MAX TEMP:  53; 6HR PCP: TRACE;

FLAGSTAFF      CLOUDY    42  41  96 SW7       29.99S
PAYSON         CLOUDY    50  46  87 CALM      29.99S
PAGE           CLOUDY    57  50  77 CALM      29.88S
6HR MIN TEMP:  55; 6HR MAX TEMP:  60; 6HR PCP:  0.03;

$$

AZZ009>014-017-051300-
NORTHEAST ARIZONA

CITY           SKY/WX    TMP DP  RH WIND       PRES   REMARKS
WINSLOW        NOT AVBL
SAINT JOHNS    CLOUDY    47  43  86 CALM      29.96F
6HR MIN TEMP:  46; 6HR MAX TEMP:  47; 6HR PCP:  0.03;

WINDOW ROCK    CLOUDY    45  40  82 CALM      29.96F
6HR MIN TEMP:  45; 6HR MAX TEMP:  47; 6HR PCP: TRACE;

$$

AZZ023-051300-
GREATER PHOENIX AREA

CITY           SKY/WX    TMP DP  RH WIND       PRES   REMARKS
PHOENIX        CLOUDY    68  54  60 SE7       29.85S
6HR MIN TEMP:  67; 6HR MAX TEMP:  71; 6HR PCP:  0.02;

LUKE AFB       MOCLDY    66  55  68 SW5       29.86R
DEER VALLEY    CLOUDY    65  53  65 CALM      29.87R
6HR MIN TEMP:  65; 6HR MAX TEMP:  67;

SCOTTSDALE     CLOUDY    66  53  63 CALM      29.88S
6HR MIN TEMP:  66; 6HR MAX TEMP:  68; 6HR PCP: TRACE;

MESA-GATEWAY   MOCLDY    63  55  77 E6        29.90S
$$

AZZ027-028-051300-
SOUTHWEST MARICOPA COUNTY AND PINAL COUNTY

CITY           SKY/WX    TMP DP  RH WIND       PRES   REMARKS
CASA GRANDE    MOCLDY    61  54  77 SE5       29.87S
6HR MIN TEMP:  61; 6HR MAX TEMP:  66; 6HR PCP:  0.02;

$$

AZZ503-504-507>509-051300-
SOUTHEAST ARIZONA

CITY           SKY/WX    TMP DP  RH WIND       PRES   REMARKS
TUCSON         PTCLDY    59  52  77 E3        29.94S
6HR MIN TEMP:  58; 6HR MAX TEMP:  61; 6HR PCP:  0.01;

NOGALES        CLEAR     52  45  77 SE3       29.96S
6HR MIN TEMP:  52; 6HR MAX TEMP:  62;

SAFFORD        PTCLDY    52  49  89 CALM      29.93S
6HR MIN TEMP:  52; 6HR MAX TEMP:  60; 6HR PCP:  0.02;

$$

AZZ020-021-025-026-031-051300-
SOUTHWEST ARIZONA

CITY           SKY/WX    TMP DP  RH WIND       PRES   REMARKS
YUMA           MOCLDY    67  54  63 SE5       29.83S
6HR MIN TEMP:  65; 6HR MAX TEMP:  74;

$$

CAZ031-033-041-043-047-048-061-051300-
SOUTHERN CALIFORNIA

CITY           SKY/WX    TMP DP  RH WIND       PRES   REMARKS
DOWNTOWN L.A.  CLOUDY    60  49  66 E3        29.97F
6HR MIN TEMP:  57; 6HR MAX TEMP:  60;

L.A. AIRPORT   CLOUDY    58  50  75 CALM      29.98F
6HR MIN TEMP:  56; 6HR MAX TEMP:  58;

SAN DIEGO      CLOUDY    62  48  60 CALM      30.00F
6HR MIN TEMP:  61; 6HR MAX TEMP:  63;

BURBANK        CLOUDY    57  48  72 S5        29.97S
6HR MIN TEMP:  56; 6HR MAX TEMP:  58;

ONTARIO        CLOUDY    55  48  77 W5        29.98S
6HR MIN TEMP:  53; 6HR MAX TEMP:  57;

RIVERSIDE      CLOUDY    55  49  80 VRB3      29.98F
6HR MIN TEMP:  54; 6HR MAX TEMP:  57;

PALM SPRINGS   CLEAR     66  46  48 W7        29.86S
6HR MIN TEMP:  66; 6HR MAX TEMP:  73;

EL CENTRO NAS  CLEAR     66  43  43 SW8       29.85S
6HR MIN TEMP:  65; 6HR MAX TEMP:  71;

IMPERIAL       CLEAR     64  54  69 SW5       29.83R
6HR MIN TEMP:  63; 6HR MAX TEMP:  71;

BLYTHE         PTCLDY    62  60  93 SE3       29.83F
6HR MIN TEMP:  62; 6HR MAX TEMP:  66;

$$

NVZ020-UTZ003-051300-
SOUTHERN NEVADA-UTAH

CITY           SKY/WX    TMP DP  RH WIND       PRES   REMARKS
LAS VEGAS      NOT AVBL
SALT LAKE CITY MOCLDY    57  43  59 S8        29.84F
6HR MIN TEMP:  55; 6HR MAX TEMP:  63;

$$

NMZ009-TXZ055-051300-
NEW MEXICO-WEST TEXAS

CITY           SKY/WX    TMP DP  RH WIND       PRES   REMARKS
ALBUQUERQUE    CLOUDY    51  48  89 S8        29.94F
6HR MIN TEMP:  50; 6HR MAX TEMP:  56;

EL PASO        PTCLDY    58  50  75 NW6       29.92R
6HR MIN TEMP:  57; 6HR MAX TEMP:  69;

$$


........................KEY........................
SKY/WX - SKY CONDITION/WEATHER
TMP    - TEMPERATURE IN FAHRENHEIT
DP     - DEW POINT IN FAHRENHEIT
RH     - RELATIVE HUMIDITY IN PERCENT
WIND   - DIRECTION AND SPEED IN MILES PER HOUR (MPH)
VRB    - VARIABLE WIND DIRECTION
PRES   - MEAN SEA LEVEL PRESSURE IN INCHES OF MERCURY
         F - FALLING PRESSURE   R - RISING PRESSURE
         S - STEADY PRESSURE
VSB    - VISIBILITY IN MILES
HX     - HEAT INDEX IN FAHRENHEIT
WCI    - WIND CHILL INDEX IN FAHRENHEIT
TC     - TEMPERATURE IN CELSIUS WHICH IS ALSO KNOWN AS
         TEMPERATURE IN CENTIGRADE
AFB    - AIR FORCE BASE
         LUKE AFB IS LUKE AIR FORCE BASE
         DAVIS-MONTHAN IS DAVIS-MONTHAN AIR FORCE BASE
NAS    - NAVAL AIR STATION
         EL CENTRO NAS IS EL CENTRO NAVAL AIR STATION
N/A    - NOT AVAILABLE




USA.gov is the U.S. government's official web portal to all federal, state and local government web resources and services.